Location: *
(37.9500°N, 27.3666°E)
Time: 03:34:59
(UTC+00:00)

USA 215 - Pass Details

Date: 24 October 2021
Orbit: 1099 x 1109 km, 123.0° (Epoch: 20 November)

Event Time Altitude Azimuth Distance (km) Brightness Sun altitude
Rises 15:35:01 0° 41° (NE) 3,922 5.7 -3.5°
Reaches altitude 10° 15:37:36 10° 35° (NE) 2,963 5.1 -4.0°
Maximum altitude 15:43:44 45° 325° (NW) 1,462 4.2 -5.2°
Drops below altitude 10° 15:49:53 10° 256° (WSW) 2,961 7.4 -6.4°
Sets 15:52:28 0° 250° (WSW) 3,918 8.3 -6.9°
